| time (UTC) | temp F | wind direction | speed MPH | gust MPH | rain 1hr in | rain 24hr in | rain mn in | humidity % | barometer mb |
| 20260506025557 | 70 | 249 | 0.0 | 2.0 | 0.00 | 0.00 | 0.00 | 63 | 1012.5 |
| 20260506025057 | 70 | 0 | 0.0 | 3.0 | 0.00 | 0.00 | 0.00 | 62 | 1012.7 |
| 20260506024600 | 70 | 0 | 0.0 | 4.0 | 0.00 | 0.00 | 0.00 | 62 | 1012.8 |
| 20260506024057 | 71 | 0 | 0.0 | 4.0 | 0.00 | 0.00 | 0.00 | 62 | 1012.7 |
| 20260506023557 | 71 | 0 | 0.0 | 1.0 | 0.00 | 0.00 | 0.00 | 61 | 1012.8 |
| 20260506023058 | 71 | 233 | 0.0 | 8.0 | 0.00 | 0.00 | 0.00 | 61 | 1012.8 |
| 20260506022557 | 71 | 299 | 0.0 | 8.0 | 0.00 | 0.00 | 0.00 | 60 | 1012.5 |
| 20260506022057 | 71 | 186 | 1.0 | 8.0 | 0.00 | 0.00 | 0.00 | 60 | 1012.3 |
| 20260506021601 | 71 | 296 | 0.0 | 2.0 | 0.00 | 0.00 | 0.00 | 61 | 1012.5 |
| 20260506021057 | 71 | 0 | 0.0 | 4.0 | 0.00 | 0.00 | 0.00 | 60 | 1012.6 |
| 20260506020556 | 71 | 248 | 1.0 | 4.0 | 0.00 | 0.00 | 0.00 | 59 | 1012.3 |
| 20260506020100 | 71 | 263 | 0.0 | 4.0 | 0.00 | 0.00 | 0.00 | 60 | 1012.2 |
| 20260506015557 | 71 | 179 | 1.0 | 4.0 | 0.00 | 0.00 | 0.00 | 61 | 1012.2 |
| 20260506015057 | 71 | 0 | 0.0 | 4.0 | 0.00 | 0.00 | 0.00 | 60 | 1012.3 |
| 20260506014607 | 71 | 241 | 1.0 | 7.0 | 0.00 | 0.00 | 0.00 | 60 | 1012.3 |
| 20260506014056 | 71 | 0 | 1.0 | 7.0 | 0.00 | 0.00 | 0.00 | 59 | 1012.2 |
| 20260506013556 | 71 | 211 | 1.0 | 7.0 | 0.00 | 0.00 | 0.00 | 59 | 1012.0 |
| 20260506013056 | 71 | 242 | 0.0 | 6.0 | 0.00 | 0.00 | 0.00 | 59 | 1012.1 |
| 20260506012557 | 70 | 217 | 0.0 | 4.0 | 0.00 | 0.00 | 0.00 | 60 | 1012.0 |
| 20260506012101 | 70 | 0 | 0.0 | 4.0 | 0.00 | 0.00 | 0.00 | 60 | 1012.0 |
| 20260506011557 | 70 | 232 | 0.0 | 4.0 | 0.00 | 0.00 | 0.00 | 59 | 1012.0 |
| 20260506011057 | 70 | 0 | 0.0 | 3.0 | 0.00 | 0.00 | 0.00 | 61 | 1011.9 |
| 20260506010557 | 70 | 0 | 0.0 | 2.0 | 0.00 | 0.00 | 0.00 | 61 | 1011.9 |
| 20260506010105 | 70 | 315 | 0.0 | 3.0 | 0.00 | 0.00 | 0.00 | 61 | 1011.9 |
| 20260506005558 | 70 | 0 | 0.0 | 3.0 | 0.00 | 0.00 | 0.00 | 63 | 1011.8 |
| 20260506005057 | 70 | 0 | 0.0 | 3.0 | 0.00 | 0.00 | 0.00 | 59 | 1011.8 |
| 20260506004558 | 70 | 0 | 0.0 | 2.0 | 0.00 | 0.00 | 0.00 | 59 | 1011.9 |
| 20260506004057 | 70 | 0 | 0.0 | 1.0 | 0.00 | 0.00 | 0.00 | 60 | 1011.8 |
| 20260506003557 | 70 | 311 | 0.0 | 1.0 | 0.00 | 0.00 | 0.00 | 60 | 1011.8 |
| 20260506003100 | 70 | 0 | 0.0 | 1.0 | 0.00 | 0.00 | 0.00 | 59 | 1012.0 |
| 20260506002556 | 71 | 0 | 0.0 | 1.0 | 0.00 | 0.00 | 0.00 | 60 | 1012.0 |
| 20260506002100 | 71 | 0 | 0.0 | 2.0 | 0.00 | 0.00 | 0.00 | 57 | 1012.0 |
| 20260506001600 | 71 | 0 | 0.0 | 2.0 | 0.00 | 0.00 | 0.00 | 59 | 1012.1 |
| 20260506001057 | 71 | 0 | 0.0 | 3.0 | 0.00 | 0.00 | 0.00 | 55 | 1012.1 |
| 20260506000601 | 71 | 0 | 0.0 | 3.0 | 0.00 | 0.00 | 0.00 | 59 | 1012.1 |
| 20260506000100 | 71 | 294 | 0.0 | 3.0 | 0.00 | 0.00 | 0.00 | 57 | 1011.9 |
| 20260505235600 | 71 | 311 | 0.0 | 3.0 | 0.00 | 0.00 | 0.00 | 55 | 1011.9 |
| 20260505235100 | 71 | 217 | 0.0 | 2.0 | 0.00 | 0.00 | 0.00 | 55 | 1011.9 |
| 20260505234557 | 72 | 0 | 0.0 | 5.0 | 0.00 | 0.00 | 0.00 | 56 | 1011.9 |
| 20260505234057 | 72 | 0 | 0.0 | 5.0 | 0.00 | 0.00 | 0.00 | 57 | 1012.1 |
| 20260505233557 | 72 | 0 | 0.0 | 6.0 | 0.00 | 0.00 | 0.00 | 53 | 1011.9 |
| 20260505233129 | 72 | 0 | 1.0 | 6.0 | 0.00 | 0.00 | 0.00 | 54 | 1011.9 |
| 20260505232557 | 72 | 279 | 0.0 | 7.0 | 0.00 | 0.00 | 0.00 | 52 | 1012.0 |
| 20260505232058 | 72 | 312 | 0.0 | 7.0 | 0.00 | 0.00 | 0.00 | 53 | 1012.1 |
| 20260505231558 | 72 | 0 | 1.0 | 4.0 | 0.00 | 0.00 | 0.00 | 53 | 1012.0 |
| 20260505231056 | 72 | 0 | 0.0 | 3.0 | 0.00 | 0.00 | 0.00 | 54 | 1011.9 |
| 20260505230556 | 72 | 0 | 0.0 | 3.0 | 0.00 | 0.00 | 0.00 | 56 | 1012.0 |
| 20260505230101 | 72 | 306 | 0.0 | 3.0 | 0.00 | 0.00 | 0.00 | 53 | 1011.9 |
| 20260505225557 | 71 | 0 | 0.0 | 2.0 | 0.00 | 0.00 | 0.00 | 60 | 1011.9 |
| 20260505225057 | 71 | 360 | 0.0 | 0.0 | 0.00 | 0.00 | 0.00 | 57 | 1012.1 |
| 20260505224558 | 71 | 0 | 0.0 | 2.0 | 0.00 | 0.00 | 0.00 | 60 | 1012.2 |
| 20260505224103 | 71 | 0 | 0.0 | 2.0 | 0.00 | 0.00 | 0.00 | 55 | 1012.1 |
| 20260505223600 | 71 | 182 | 0.0 | 2.0 | 0.00 | 0.00 | 0.00 | 57 | 1012.0 |
| 20260505223102 | 70 | 0 | 0.0 | 3.0 | 0.00 | 0.00 | 0.00 | 59 | 1011.9 |
| 20260505222600 | 70 | 0 | 0.0 | 4.0 | 0.00 | 0.00 | 0.00 | 65 | 1011.8 |
| 20260505222100 | 70 | 0 | 0.0 | 4.0 | 0.00 | 0.00 | 0.00 | 56 | 1011.9 |
| 20260505221604 | 70 | 196 | 0.0 | 4.0 | 0.00 | 0.00 | 0.00 | 60 | 1012.0 |
| 20260505221104 | 69 | 121 | 1.0 | 4.0 | 0.00 | 0.00 | 0.00 | 61 | 1012.1 |
| 20260505220600 | 69 | 309 | 0.0 | 3.0 | 0.00 | 0.00 | 0.00 | 67 | 1011.9 |
| 20260505220059 | 69 | 0 | 0.0 | 3.0 | 0.00 | 0.00 | 0.00 | 62 | 1011.9 |
| 20260505215557 | 70 | 0 | 0.0 | 2.0 | 0.00 | 0.00 | 0.00 | 67 | 1011.8 |
| 20260505215058 | 71 | 0 | 0.0 | 3.0 | 0.00 | 0.00 | 0.00 | 64 | 1011.7 |
| 20260505214605 | 72 | 0 | 0.0 | 3.0 | 0.00 | 0.00 | 0.00 | 61 | 1011.5 |
| 20260505214101 | 73 | 0 | 0.0 | 4.0 | 0.00 | 0.00 | 0.00 | 53 | 1012.2 |
| 20260505213602 | 73 | 0 | 0.0 | 4.0 | 0.00 | 0.00 | 0.00 | 52 | 1012.6 |
| 20260505213136 | 74 | 269 | 0.0 | 2.0 | 0.00 | 0.00 | 0.00 | 51 | 1012.7 |
| 20260505212557 | 74 | 0 | 0.0 | 2.0 | 0.00 | 0.00 | 0.00 | 46 | 1012.7 |
| 20260505212057 | 74 | 0 | 0.0 | 2.0 | 0.00 | 0.00 | 0.00 | 49 | 1012.9 |
| 20260505211559 | 75 | 0 | 0.0 | 4.0 | 0.00 | 0.00 | 0.00 | 47 | 1012.9 |
| 20260505211057 | 75 | 0 | 0.0 | 7.0 | 0.00 | 0.00 | 0.00 | 47 | 1012.8 |
| 20260505210558 | 75 | 244 | 2.0 | 7.0 | 0.00 | 0.00 | 0.00 | 45 | 1012.8 |
| 20260505210106 | 75 | 269 | 0.0 | 5.0 | 0.00 | 0.00 | 0.00 | 48 | 1012.6 |
| 20260505205557 | 75 | 230 | 1.0 | 7.0 | 0.00 | 0.00 | 0.00 | 48 | 1012.5 |
| 20260505205059 | 76 | 262 | 0.0 | 7.0 | 0.00 | 0.00 | 0.00 | 49 | 1012.5 |
| 20260505204559 | 76 | 238 | 1.0 | 7.0 | 0.00 | 0.00 | 0.00 | 48 | 1012.7 |
| 20260505204056 | 76 | 244 | 0.0 | 7.0 | 0.00 | 0.00 | 0.00 | 49 | 1012.7 |
| 20260505203557 | 77 | 346 | 0.0 | 8.0 | 0.00 | 0.00 | 0.00 | 49 | 1012.6 |
| 20260505203059 | 77 | 0 | 2.0 | 8.0 | 0.00 | 0.00 | 0.00 | 46 | 1012.7 |
| 20260505202557 | 78 | 0 | 1.0 | 6.0 | 0.00 | 0.00 | 0.00 | 44 | 1012.7 |
| 20260505202057 | 78 | 352 | 1.0 | 6.0 | 0.00 | 0.00 | 0.00 | 45 | 1012.8 |
| 20260505201558 | 78 | 229 | 0.0 | 9.0 | 0.00 | 0.00 | 0.00 | 44 | 1013.0 |
| 20260505201056 | 78 | 0 | 0.0 | 9.0 | 0.00 | 0.00 | 0.00 | 45 | 1013.1 |
| 20260505200558 | 79 | 157 | 3.0 | 9.0 | 0.00 | 0.00 | 0.00 | 45 | 1013.2 |
| 20260505200056 | 78 | 119 | 1.0 | 11.0 | 0.00 | 0.00 | 0.00 | 50 | 1013.0 |
| 20260505195556 | 78 | 284 | 3.0 | 11.0 | 0.00 | 0.00 | 0.00 | 47 | 1013.2 |
| 20260505195059 | 78 | 257 | 3.0 | 12.0 | 0.00 | 0.00 | 0.00 | 46 | 1013.1 |
| 20260505194601 | 78 | 257 | 4.0 | 12.0 | 0.00 | 0.00 | 0.00 | 46 | 1013.3 |
| 20260505194056 | 78 | 294 | 2.0 | 14.0 | 0.00 | 0.00 | 0.00 | 47 | 1013.2 |
| 20260505193557 | 78 | 190 | 4.0 | 14.0 | 0.00 | 0.00 | 0.00 | 45 | 1013.5 |
| 20260505193124 | 78 | 200 | 2.0 | 9.0 | 0.00 | 0.00 | 0.00 | 49 | 1013.4 |
| 20260505192557 | 78 | 259 | 4.0 | 10.0 | 0.00 | 0.00 | 0.00 | 46 | 1013.5 |
| 20260505192057 | 78 | 209 | 1.0 | 10.0 | 0.00 | 0.00 | 0.00 | 50 | 1013.7 |
| 20260505191606 | 78 | 269 | 1.0 | 11.0 | 0.00 | 0.00 | 0.00 | 47 | 1013.5 |
| 20260505191057 | 78 | 205 | 3.0 | 11.0 | 0.00 | 0.00 | 0.00 | 47 | 1013.6 |
| 20260505190556 | 78 | 199 | 3.0 | 10.0 | 0.00 | 0.00 | 0.00 | 46 | 1013.6 |
| 20260505190057 | 78 | 242 | 3.0 | 11.0 | 0.00 | 0.00 | 0.00 | 45 | 1013.5 |
| 20260505185557 | 77 | 277 | 3.0 | 11.0 | 0.00 | 0.00 | 0.00 | 47 | 1013.7 |
| 20260505185058 | 77 | 269 | 3.0 | 12.0 | 0.00 | 0.00 | 0.00 | 47 | 1013.8 |
| 20260505184602 | 77 | 279 | 1.0 | 12.0 | 0.00 | 0.00 | 0.00 | 47 | 1013.7 |
| 20260505184058 | 77 | 225 | 2.0 | 12.0 | 0.00 | 0.00 | 0.00 | 47 | 1014.1 |
| 20260505183557 | 77 | 262 | 1.0 | 8.0 | 0.00 | 0.00 | 0.00 | 44 | 1014.1 |
| 20260505183057 | 77 | 352 | 2.0 | 8.0 | 0.00 | 0.00 | 0.00 | 48 | 1014.1 |
| 20260505182557 | 77 | 271 | 1.0 | 11.0 | 0.00 | 0.00 | 0.00 | 51 | 1014.0 |
| 20260505182056 | 76 | 0 | 2.0 | 12.0 | 0.00 | 0.00 | 0.00 | 50 | 1014.3 |
| 20260505181557 | 77 | 352 | 4.0 | 12.0 | 0.00 | 0.00 | 0.00 | 47 | 1014.4 |
| 20260505181056 | 77 | 0 | 2.0 | 10.0 | 0.00 | 0.00 | 0.00 | 48 | 1014.3 |
| 20260505180556 | 77 | 269 | 2.0 | 10.0 | 0.00 | 0.00 | 0.00 | 48 | 1014.4 |
| 20260505180058 | 77 | 124 | 2.0 | 10.0 | 0.00 | 0.00 | 0.00 | 46 | 1014.3 |
| 20260505175557 | 77 | 334 | 1.0 | 10.0 | 0.00 | 0.00 | 0.00 | 50 | 1014.4 |
| 20260505175057 | 77 | 323 | 3.0 | 17.0 | 0.00 | 0.00 | 0.00 | 46 | 1014.4 |
| 20260505174557 | 76 | 352 | 3.0 | 17.0 | 0.00 | 0.00 | 0.00 | 49 | 1014.4 |
| 20260505174100 | 76 | 26 | 3.0 | 11.0 | 0.00 | 0.00 | 0.00 | 48 | 1014.5 |
| 20260505173557 | 76 | 290 | 2.0 | 12.0 | 0.00 | 0.00 | 0.00 | 49 | 1014.6 |
| 20260505173100 | 76 | 222 | 3.0 | 13.0 | 0.00 | 0.00 | 0.00 | 48 | 1014.6 |
| 20260505172556 | 76 | 360 | 3.0 | 13.0 | 0.00 | 0.00 | 0.00 | 46 | 1014.8 |
| 20260505172056 | 75 | 233 | 3.0 | 14.0 | 0.00 | 0.00 | 0.00 | 50 | 1014.9 |
| 20260505171559 | 75 | 188 | 4.0 | 14.0 | 0.00 | 0.00 | 0.00 | 48 | 1015.0 |
| 20260505171057 | 75 | 219 | 3.0 | 9.0 | 0.00 | 0.00 | 0.00 | 46 | 1015.2 |
| 20260505170557 | 75 | 185 | 2.0 | 9.0 | 0.00 | 0.00 | 0.00 | 49 | 1015.4 |
| 20260505170057 | 75 | 134 | 2.0 | 9.0 | 0.00 | 0.00 | 0.00 | 47 | 1015.2 |
| 20260505165556 | 75 | 323 | 3.0 | 10.0 | 0.00 | 0.00 | 0.00 | 48 | 1015.3 |
| 20260505165102 | 75 | 139 | 3.0 | 10.0 | 0.00 | 0.00 | 0.00 | 47 | 1015.2 |
| 20260505164557 | 75 | 247 | 3.0 | 11.0 | 0.00 | 0.00 | 0.00 | 47 | 1015.3 |
| 20260505164056 | 75 | 148 | 2.0 | 11.0 | 0.00 | 0.00 | 0.00 | 49 | 1015.4 |
| 20260505163555 | 75 | 337 | 1.0 | 10.0 | 0.00 | 0.00 | 0.00 | 55 | 1015.6 |
| 20260505163100 | 75 | 185 | 2.0 | 10.0 | 0.00 | 0.00 | 0.00 | 54 | 1015.4 |
| 20260505162558 | 75 | 145 | 1.0 | 6.0 | 0.00 | 0.00 | 0.00 | 56 | 1015.6 |
| 20260505162056 | 75 | 150 | 1.0 | 8.0 | 0.00 | 0.00 | 0.00 | 57 | 1015.4 |
| 20260505161601 | 75 | 0 | 0.0 | 8.0 | 0.00 | 0.00 | 0.00 | 61 | 1015.4 |
| 20260505161057 | 75 | 237 | 0.0 | 3.0 | 0.00 | 0.00 | 0.00 | 63 | 1015.3 |
| 20260505160557 | 74 | 0 | 0.0 | 2.0 | 0.00 | 0.00 | 0.00 | 59 | 1015.2 |
| 20260505153105 | 71 | 109 | 1.0 | 9.0 | 0.00 | 0.00 | 0.00 | 62 | 1015.8 |
| 20260505152558 | 71 | 0 | 1.0 | 9.0 | 0.00 | 0.00 | 0.00 | 64 | 1015.7 |
| 20260505152058 | 71 | 171 | 1.0 | 6.0 | 0.00 | 0.00 | 0.00 | 62 | 1015.8 |
| 20260505151600 | 70 | 236 | 2.0 | 8.0 | 0.00 | 0.00 | 0.00 | 64 | 1015.7 |
| 20260505151102 | 70 | 215 | 1.0 | 8.0 | 0.00 | 0.00 | 0.00 | 67 | 1015.9 |
| 20260505150559 | 69 | 149 | 1.0 | 8.0 | 0.00 | 0.00 | 0.00 | 64 | 1015.7 |
| 20260505140558 | 63 | 161 | 0.0 | 2.0 | 0.00 | 0.00 | 0.00 | 77 | 1015.8 |
| 20260505140106 | 62 | 0 | 0.0 | 2.0 | 0.00 | 0.00 | 0.00 | 82 | 1015.7 |
| 20260505130107 | 53 | 0 | 0.0 | 0.0 | 0.00 | 0.00 | 0.00 | 95 | 1016.0 |
| 20260505124604 | 52 | 0 | 0.0 | 0.0 | 0.00 | 0.00 | 0.00 | 95 | 1015.7 |
| 20260505124057 | 52 | 0 | 0.0 | 0.0 | 0.00 | 0.00 | 0.00 | 95 | 1015.4 |
| 20260505123559 | 52 | 0 | 0.0 | 0.0 | 0.00 | 0.00 | 0.00 | 95 | 1015.3 |
| 20260505123114 | 51 | 0 | 0.0 | 0.0 | 0.00 | 0.00 | 0.00 | 95 | 1015.3 |
| 20260505122556 | 51 | 0 | 0.0 | 0.0 | 0.00 | 0.00 | 0.00 | 95 | 1015.3 |
| 20260505122056 | 51 | 0 | 0.0 | 0.0 | 0.00 | 0.00 | 0.00 | 95 | 1015.0 |
| 20260505121556 | 51 | 0 | 0.0 | 0.0 | 0.00 | 0.00 | 0.00 | 95 | 1014.9 |
| 20260505121059 | 50 | 0 | 0.0 | 0.0 | 0.00 | 0.00 | 0.00 | 95 | 1015.0 |
| 20260505120555 | 50 | 0 | 0.0 | 0.0 | 0.00 | 0.00 | 0.00 | 95 | 1014.9 |
| 20260505120108 | 50 | 0 | 0.0 | 0.0 | 0.00 | 0.00 | 0.00 | 95 | 1014.8 |
| 20260505115556 | 49 | 0 | 0.0 | 0.0 | 0.00 | 0.00 | 0.00 | 95 | 1014.7 |
| 20260505115056 | 49 | 0 | 0.0 | 0.0 | 0.00 | 0.00 | 0.00 | 95 | 1014.8 |
| 20260505114558 | 49 | 0 | 0.0 | 0.0 | 0.00 | 0.00 | 0.00 | 95 | 1014.7 |
| 20260505114057 | 48 | 0 | 0.0 | 0.0 | 0.00 | 0.00 | 0.00 | 95 | 1014.7 |
| 20260505113559 | 48 | 0 | 0.0 | 0.0 | 0.00 | 0.00 | 0.00 | 95 | 1014.6 |
| 20260505113108 | 48 | 0 | 0.0 | 0.0 | 0.00 | 0.00 | 0.00 | 95 | 1014.5 |
| 20260505112556 | 48 | 0 | 0.0 | 0.0 | 0.00 | 0.00 | 0.00 | 95 | 1014.5 |
| 20260505112059 | 48 | 0 | 0.0 | 0.0 | 0.00 | 0.00 | 0.00 | 95 | 1014.3 |
| 20260505111558 | 48 | 0 | 0.0 | 0.0 | 0.00 | 0.00 | 0.00 | 94 | 1014.3 |
| 20260505111056 | 48 | 0 | 0.0 | 0.0 | 0.00 | 0.00 | 0.00 | 94 | 1014.2 |
| 20260505110555 | 48 | 0 | 0.0 | 0.0 | 0.00 | 0.00 | 0.00 | 94 | 1014.2 |
| 20260505102056 | 48 | 0 | 0.0 | 0.0 | 0.00 | 0.00 | 0.00 | 94 | 1013.7 |
| 20260505101558 | 48 | 0 | 0.0 | 0.0 | 0.00 | 0.00 | 0.00 | 94 | 1013.8 |
| 20260505101057 | 48 | 0 | 0.0 | 0.0 | 0.00 | 0.00 | 0.00 | 93 | 1013.7 |
| 20260505100556 | 48 | 0 | 0.0 | 0.0 | 0.00 | 0.00 | 0.00 | 93 | 1013.8 |
| 20260505095559 | 48 | 0 | 0.0 | 0.0 | 0.00 | 0.00 | 0.00 | 94 | 1013.6 |
| 20260505095057 | 48 | 0 | 0.0 | 0.0 | 0.00 | 0.00 | 0.00 | 94 | 1013.6 |
| 20260505094556 | 48 | 0 | 0.0 | 0.0 | 0.00 | 0.00 | 0.00 | 94 | 1013.5 |
| 20260505094056 | 48 | 0 | 0.0 | 0.0 | 0.00 | 0.00 | 0.00 | 94 | 1013.6 |
| 20260505093556 | 48 | 0 | 0.0 | 0.0 | 0.00 | 0.00 | 0.00 | 94 | 1013.8 |
| 20260505093057 | 48 | 0 | 0.0 | 0.0 | 0.00 | 0.00 | 0.00 | 94 | 1013.9 |
| 20260505092555 | 48 | 0 | 0.0 | 0.0 | 0.00 | 0.00 | 0.00 | 94 | 1013.9 |
| 20260505092055 | 48 | 0 | 0.0 | 0.0 | 0.00 | 0.00 | 0.00 | 94 | 1013.7 |
| 20260505091619 | 48 | 0 | 0.0 | 0.0 | 0.00 | 0.00 | 0.00 | 93 | 1013.7 |
| 20260505091056 | 49 | 0 | 0.0 | 0.0 | 0.00 | 0.00 | 0.00 | 93 | 1013.8 |
| 20260505090556 | 49 | 0 | 0.0 | 0.0 | 0.00 | 0.00 | 0.00 | 94 | 1013.6 |
| 20260505090121 | 49 | 0 | 0.0 | 0.0 | 0.00 | 0.00 | 0.00 | 94 | 1013.6 |
| 20260505085557 | 49 | 0 | 0.0 | 0.0 | 0.00 | 0.00 | 0.00 | 93 | 1013.7 |
| 20260505085059 | 49 | 0 | 0.0 | 1.0 | 0.00 | 0.00 | 0.00 | 93 | 1013.6 |
| 20260505084614 | 49 | 0 | 0.0 | 1.0 | 0.00 | 0.00 | 0.00 | 93 | 1013.6 |
| 20260505084056 | 49 | 0 | 0.0 | 1.0 | 0.00 | 0.00 | 0.00 | 93 | 1013.7 |
| 20260505083558 | 49 | 0 | 0.0 | 1.0 | 0.00 | 0.00 | 0.00 | 93 | 1013.8 |
| 20260505083110 | 49 | 0 | 0.0 | 0.0 | 0.00 | 0.00 | 0.00 | 93 | 1013.7 |
| 20260505082600 | 49 | 0 | 0.0 | 0.0 | 0.00 | 0.00 | 0.00 | 93 | 1013.9 |
| 20260505082056 | 49 | 0 | 0.0 | 0.0 | 0.00 | 0.00 | 0.00 | 92 | 1013.9 |
| 20260505081604 | 49 | 0 | 0.0 | 0.0 | 0.00 | 0.00 | 0.00 | 92 | 1013.9 |
| 20260505081056 | 50 | 0 | 0.0 | 0.0 | 0.00 | 0.00 | 0.00 | 92 | 1014.0 |
| 20260505080556 | 50 | 0 | 0.0 | 0.0 | 0.00 | 0.00 | 0.00 | 92 | 1013.9 |
| 20260505080105 | 50 | 0 | 0.0 | 1.0 | 0.00 | 0.00 | 0.00 | 92 | 1014.0 |
| 20260505075558 | 50 | 0 | 0.0 | 1.0 | 0.00 | 0.00 | 0.00 | 92 | 1014.1 |
| 20260505075056 | 50 | 0 | 0.0 | 1.0 | 0.00 | 0.00 | 0.00 | 92 | 1014.0 |
| 20260505074559 | 50 | 0 | 0.0 | 1.0 | 0.00 | 0.00 | 0.00 | 92 | 1014.0 |
| 20260505074056 | 50 | 0 | 0.0 | 1.0 | 0.00 | 0.00 | 0.00 | 92 | 1013.9 |
| 20260505073556 | 50 | 0 | 0.0 | 0.0 | 0.00 | 0.00 | 0.00 | 92 | 1013.9 |
| 20260505073103 | 50 | 0 | 0.0 | 0.0 | 0.00 | 0.00 | 0.00 | 92 | 1013.9 |
| 20260505072558 | 50 | 0 | 0.0 | 0.0 | 0.00 | 0.00 | 0.00 | 92 | 1014.0 |
| 20260505072057 | 50 | 0 | 0.0 | 0.0 | 0.00 | 0.00 | 0.00 | 92 | 1014.0 |
| 20260505071615 | 50 | 0 | 0.0 | 0.0 | 0.00 | 0.00 | 0.00 | 92 | 1014.1 |
| 20260505071059 | 50 | 0 | 0.0 | 1.0 | 0.00 | 0.00 | 0.00 | 92 | 1014.1 |
| 20260505070558 | 50 | 0 | 0.0 | 1.0 | 0.00 | 0.00 | 0.00 | 91 | 1014.1 |
| 20260505070059 | 50 | 0 | 0.0 | 1.0 | 0.00 | 0.00 | 0.00 | 91 | 1014.1 |
| 20260505065555 | 51 | 0 | 0.0 | 0.0 | 0.00 | 0.00 | 0.00 | 91 | 1014.1 |
| 20260505065055 | 51 | 0 | 0.0 | 0.0 | 0.00 | 0.00 | 0.00 | 91 | 1014.0 |
| 20260505064602 | 51 | 0 | 0.0 | 0.0 | 0.00 | 0.00 | 0.00 | 91 | 1014.1 |
| 20260505064056 | 51 | 0 | 0.0 | 0.0 | 0.00 | 0.00 | 0.00 | 91 | 1014.2 |
| 20260505063557 | 51 | 0 | 0.0 | 0.0 | 0.00 | 0.00 | 0.00 | 91 | 1014.2 |
| 20260505063101 | 51 | 0 | 0.0 | 0.0 | 0.00 | 0.00 | 0.00 | 91 | 1014.3 |
| 20260505062559 | 51 | 0 | 0.0 | 0.0 | 0.00 | 0.00 | 0.00 | 91 | 1014.2 |
| 20260505062059 | 51 | 0 | 0.0 | 0.0 | 0.00 | 0.00 | 0.00 | 91 | 1014.3 |
| 20260505061600 | 51 | 0 | 0.0 | 0.0 | 0.00 | 0.00 | 0.00 | 91 | 1014.3 |
| 20260505061057 | 51 | 0 | 0.0 | 0.0 | 0.00 | 0.00 | 0.00 | 91 | 1014.2 |
| 20260505060558 | 51 | 0 | 0.0 | 0.0 | 0.00 | 0.00 | 0.00 | 91 | 1014.2 |
| 20260505060106 | 52 | 0 | 0.0 | 1.0 | 0.00 | 0.00 | 0.00 | 91 | 1014.2 |
| 20260505055558 | 52 | 0 | 0.0 | 1.0 | 0.00 | 0.00 | 0.00 | 91 | 1014.2 |
| 20260505055059 | 52 | 0 | 0.0 | 1.0 | 0.00 | 0.00 | 0.00 | 91 | 1014.2 |
| 20260505054607 | 52 | 0 | 0.0 | 1.0 | 0.00 | 0.00 | 0.00 | 91 | 1014.2 |
| 20260505054057 | 52 | 0 | 0.0 | 1.0 | 0.00 | 0.00 | 0.00 | 91 | 1014.3 |
| 20260505053557 | 52 | 0 | 0.0 | 1.0 | 0.00 | 0.00 | 0.00 | 91 | 1014.3 |
| 20260505053112 | 52 | 0 | 0.0 | 1.0 | 0.00 | 0.00 | 0.00 | 91 | 1014.3 |
| 20260505052557 | 52 | 0 | 0.0 | 1.0 | 0.00 | 0.00 | 0.00 | 90 | 1014.3 |
| 20260505052058 | 52 | 0 | 0.0 | 1.0 | 0.00 | 0.00 | 0.00 | 90 | 1014.3 |
| 20260505051557 | 52 | 0 | 0.0 | 0.0 | 0.00 | 0.00 | 0.00 | 90 | 1014.3 |
| 20260505051058 | 52 | 0 | 0.0 | 0.0 | 0.00 | 0.00 | 0.00 | 90 | 1014.2 |
| 20260505050559 | 52 | 0 | 0.0 | 0.0 | 0.00 | 0.00 | 0.00 | 89 | 1014.2 |
| 20260505041605 | 53 | 0 | 0.0 | 0.0 | 0.00 | 0.00 | 0.00 | 87 | 1014.2 |
| 20260505041058 | 53 | 0 | 0.0 | 0.0 | 0.00 | 0.00 | 0.00 | 87 | 1014.3 |
| 20260505040558 | 53 | 0 | 0.0 | 0.0 | 0.00 | 0.00 | 0.00 | 87 | 1014.2 |
| 20260505035557 | 53 | 0 | 0.0 | 0.0 | 0.00 | 0.00 | 0.00 | 86 | 1014.2 |
| 20260505035101 | 54 | 0 | 0.0 | 0.0 | 0.00 | 0.00 | 0.00 | 86 | 1014.2 |
| 20260505034559 | 54 | 0 | 0.0 | 0.0 | 0.00 | 0.00 | 0.00 | 86 | 1014.3 |
| 20260505034057 | 54 | 0 | 0.0 | 0.0 | 0.00 | 0.00 | 0.00 | 86 | 1014.3 |
| 20260505033558 | 54 | 0 | 0.0 | 0.0 | 0.00 | 0.00 | 0.00 | 85 | 1014.2 |
| 20260505033057 | 54 | 0 | 0.0 | 0.0 | 0.00 | 0.00 | 0.00 | 85 | 1014.3 |
| 20260505032558 | 54 | 0 | 0.0 | 0.0 | 0.00 | 0.00 | 0.00 | 85 | 1014.2 |
| 20260505032059 | 55 | 0 | 0.0 | 0.0 | 0.00 | 0.00 | 0.00 | 85 | 1014.2 |
| 20260505031558 | 55 | 0 | 0.0 | 0.0 | 0.00 | 0.00 | 0.00 | 84 | 1014.1 |
| 20260505031059 | 55 | 0 | 0.0 | 0.0 | 0.00 | 0.00 | 0.00 | 84 | 1014.2 |
| 20260505030600 | 55 | 0 | 0.0 | 0.0 | 0.00 | 0.00 | 0.00 | 83 | 1014.2 |
| 20260505030114 | 55 | 0 | 0.0 | 0.0 | 0.00 | 0.00 | 0.00 | 83 | 1014.2 |